Voltar ao catálogo

DELTA 1 DEB

AtivoSSO
NORAD 21678·DEBRIS·🇺🇸 United States

Lançado Jun 12, 1975 de Vandenberg Space Force Base

Loading…

Próximas Passagens (próximas 24 horas)

TLE

AtualizadoSource: Space-Track

Época: Sep 14, 2026, 14:31 UTC

1 21678U 75052JE  26257.60486437  .00001564  00000-0  28676-2 0  9990
2 21678 100.0174 163.2285 0354639  94.6940  22.1700 13.20108619688306

Acompanhe DELTA 1 DEB em tempo real com AllMySat

Download on the App Store